THOR BURNER 2 R/B, 3522

Orbit data source: Space-Track

THOR BURNER 2 R/B, 3522 is space debris in SSO originally from a launch on Wed, 23 Oct 1968 UTC launched from the Air Force Western Test Range (AFWTR). Debris objects in space refer to the collection of defunct objects orbiting the Earth. Examples of debris include non-operational satellites, rocket bodies, and fragments generated from explosions, collisions, or faulty payload assembly.

Loading next visibility...
Identifier
3522, 1968-092B
Orbit
SSO
Country
Flag of USUS
Related business
Manufacturer
Thiokol/TE
Mission
Spacecraft
Bus & Motor
STAR 37, Unknown motor
Mass
154 kg wet, 154 kg dry
Launch date (UTC)
1968-10-23 (57 years ago)
Launch vehicle
Unknown
Launch site
Air Force Western Test Range (AFWTR)
Object type
Payload
Rocket body
Debris
Shape & HBR
Sphere + Cone + 1 Truss, 0.8 m
Radar Cross Section
2.181 m², Large (>1 m²)

Expand to show TLE details & history
Last TLE update: 9 hours ago

TLE from 9 hours ago
0 THOR BURNER 2 R/B
1 03522U 68092B   25259.64278653  .00000198  00000-0  92367-4 0  9990
2 03522  98.7794  43.1373 0027965 246.8004 113.0232 14.30846651961154
Epoch: 2025-09-16T15:25Z
TLE epoch observation values (Epoch: 2025-09-16T15:25:36.756Z)
Latitude
-0.00003°
Longitude
175.904°
Altitude
799.717 km
Speed
7.45 km/s
True Right ascension
02h 52m 32s
True Declination
0° 00' 00"
Sunlit
Object was in full shadow at epoch
Visualization orbit readout
Latitude
Unknown
Longitude
Unknown
Altitude
Unknown
Speed
Unknown
Apparent Right ascension
Unknown
Apparent Declination
Unknown
Sunlit
N/A
Visualization observer readout
Local Sidereal Time
17:27:04
Azimuth
Unknown
Elevation
Unknown
Doppler factor
Unknown
Orbital elements
Apogee altitude
806.084 km
Perigee altitude
766.015 km
Semi-major axis
7,164.187 km
Eccentricity
0.0028
Inclination
98.7794°
RAAN
43.1373°
Arg. of periapsis
246.8004°
True anomaly
113.31773°
Mean anomaly
113.0232°
Eccentric anomaly
113.1705°
Mean motion
3.57926 °/min
Orbital period
100.58 mins
BSTAR
0.000092367
Loading maneuver chart data...
Computing Atmospheric mass density...
Loading historical data...
Loading historical data...
Loading historical data...
Loading historical data...
Loading historical data...
Loading historical data...
Loading historical data...
Other satellites on launch #92 in the year 1968 (1968-10-23 UTC)

Documentation

Showing up to 5 results
|